• In Spain
  • List of Countries
  • For 7 days
  • Water Temperature
  • Satellite Maps
  • Weather Map
  • Weather Widgets
  • user-avatar
    Login

    Hourly Weather Ahwaz

    Today, 19 September, Wednesday

    Time Temperature Precipitation Wind Pressure Humidity
    00:00 +38°C° 0 mm 4 mps 753 mmHg 45%
    01:00 +38°C° 0 mm 4 mps 753 mmHg 48%
    02:00 +37°C° 0 mm 4 mps 753 mmHg 51%
    03:00 +36°C° 0 mm 4 mps 753 mmHg 66%
    04:00 +36°C° 0 mm 3 mps 754 mmHg 66%
    05:00 +35°C° 0 mm 3 mps 754 mmHg 67%
    06:00 +35°C° 0 mm 2 mps 754 mmHg 67%
    07:00 +37°C° 0 mm 2 mps 754 mmHg 59%
    08:00 +38°C° 0 mm 2 mps 754 mmHg 50%
    09:00 +40°C° 0 mm 2 mps 754 mmHg 42%
    10:00 +42°C° 0 mm 2 mps 754 mmHg 35%
    11:00 +43°C° 0 mm 1 mps 754 mmHg 29%
    12:00 +45°C° 0 mm 1 mps 753 mmHg 23%
    13:00 +46°C° 0 mm 1 mps 753 mmHg 20%
    14:00 +48°C° 0 mm 2 mps 753 mmHg 17%
    15:00 +48°C° 0 mm 2 mps 753 mmHg 18%
    16:00 +47°C° 0 mm 2 mps 753 mmHg 17%
    17:00 +47°C° 0 mm 2 mps 753 mmHg 15%
    18:00 +47°C° 0 mm 2 mps 753 mmHg 14%
    19:00 +46°C° 0 mm 2 mps 753 mmHg 15%
    20:00 +45°C° 0 mm 2 mps 753 mmHg 15%
    21:00 +43°C° 0 mm 2 mps 753 mmHg 16%
    22:00 +42°C° 0 mm 2 mps 753 mmHg 18%
    23:00 +41°C° 0 mm 2 mps 753 mmHg 19%

    Tomorrow, 20 September, Thursday

    Time Temperature Precipitation Wind Pressure Humidity
    00:00 +40°C° 0 mm 1 mps 753 mmHg 20%
    01:00 +40°C° 0 mm 1 mps 753 mmHg 23%
    02:00 +39°C° 0 mm 1 mps 753 mmHg 25%
    03:00 +37°C° 0 mm 1 mps 752 mmHg 27%
    04:00 +38°C° 0 mm 2 mps 753 mmHg 29%
    05:00 +38°C° 0 mm 2 mps 753 mmHg 30%
    06:00 +37°C° 0 mm 2 mps 753 mmHg 31%
    07:00 +39°C° 0 mm 2 mps 753 mmHg 26%
    08:00 +41°C° 0 mm 2 mps 754 mmHg 21%
    09:00 +45°C° 0 mm 2 mps 754 mmHg 16%
    10:00 +46°C° 0 mm 2 mps 754 mmHg 13%
    11:00 +48°C° 0 mm 2 mps 753 mmHg 11%
    12:00 +49°C° 0 mm 2 mps 753 mmHg 8%
    13:00 +51°C° 0 mm 3 mps 753 mmHg 7%
    14:00 +51°C° 0 mm 4 mps 752 mmHg 6%
    15:00 +53°C° 0 mm 5 mps 752 mmHg 6%
    16:00 +52°C° 0 mm 5 mps 752 mmHg 6%
    17:00 +50°C° 0 mm 5 mps 752 mmHg 6%
    18:00 +48°C° 0 mm 4 mps 751 mmHg 7%
    19:00 +48°C° 0 mm 5 mps 752 mmHg 7%
    20:00 +47°C° 0 mm 5 mps 752 mmHg 8%
    21:00 +46°C° 0 mm 6 mps 752 mmHg 9%
    22:00 +45°C° 0 mm 5 mps 752 mmHg 9%
    23:00 +43°C° 0 mm 5 mps 752 mmHg 9%

    Day after tomorrow, 21 September, Friday

    Time Temperature Precipitation Wind Pressure Humidity
    00:00 +43°C° 0 mm 5 mps 752 mmHg 10%
    01:00 +42°C° 0 mm 5 mps 752 mmHg 10%
    02:00 +41°C° 0 mm 4 mps 752 mmHg 10%
    03:00 +41°C° 0 mm 4 mps 752 mmHg 10%
    04:00 +40°C° 0 mm 4 mps 752 mmHg 10%
    05:00 +40°C° 0 mm 4 mps 752 mmHg 10%
    06:00 +38°C° 0 mm 3 mps 752 mmHg 10%
    07:00 +42°C° 0 mm 3 mps 753 mmHg 9%
    08:00 +44°C° 0 mm 3 mps 753 mmHg 8%
    09:00 +46°C° 0 mm 3 mps 754 mmHg 7%
    10:00 +48°C° 0 mm 4 mps 753 mmHg 6%
    11:00 +50°C° 0 mm 5 mps 753 mmHg 6%
    12:00 +52°C° 0 mm 5 mps 753 mmHg 6%
    13:00 +52°C° 0 mm 6 mps 753 mmHg 5%
    14:00 +52°C° 0 mm 7 mps 752 mmHg 5%
    15:00 +52°C° 0 mm 8 mps 752 mmHg 5%
    16:00 +51°C° 0 mm 7 mps 752 mmHg 5%
    17:00 +50°C° 0 mm 7 mps 752 mmHg 6%
    18:00 +48°C° 0 mm 6 mps 752 mmHg 7%
    19:00 +47°C° 0 mm 6 mps 752 mmHg 7%
    20:00 +46°C° 0 mm 6 mps 753 mmHg 8%
    21:00 +45°C° 0 mm 5 mps 753 mmHg 9%
    22:00 +43°C° 0 mm 5 mps 753 mmHg 9%
    23:00 +43°C° 0 mm 5 mps 753 mmHg 10%

    22 September, Saturday

    Time Temperature Precipitation Wind Pressure Humidity
    00:00 +42°C° 0 mm 5 mps 753 mmHg 10%
    01:00 +41°C° 0 mm 4 mps 753 mmHg 10%
    02:00 +40°C° 0 mm 4 mps 753 mmHg 10%
    03:00 +40°C° 0 mm 4 mps 753 mmHg 10%
    04:00 +38°C° 0 mm 4 mps 753 mmHg 10%
    05:00 +38°C° 0 mm 3 mps 753 mmHg 10%
    06:00 +38°C° 0 mm 3 mps 754 mmHg 9%
    07:00 +40°C° 0 mm 3 mps 754 mmHg 9%
    08:00 +43°C° 0 mm 3 mps 754 mmHg 9%
    09:00 +43°C° 0 mm 2 mps 755 mmHg 9%
    10:00 +46°C° 0 mm 2 mps 754 mmHg 8%
    11:00 +46°C° 0 mm 1 mps 754 mmHg 8%
    12:00 +47°C° 0 mm 1 mps 754 mmHg 7%
    13:00 +49°C° 0 mm 2 mps 753 mmHg 7%
    14:00 +50°C° 0 mm 3 mps 753 mmHg 6%
    15:00 +51°C° 0 mm 4 mps 752 mmHg 6%
    16:00 +50°C° 0 mm 4 mps 752 mmHg 7%
    17:00 +48°C° 0 mm 3 mps 752 mmHg 7%
    18:00 +47°C° 0 mm 3 mps 752 mmHg 8%
    19:00 +46°C° 0 mm 2 mps 752 mmHg 8%
    20:00 +45°C° 0 mm 2 mps 753 mmHg 9%
    21:00 +43°C° 0 mm 2 mps 753 mmHg 9%
    22:00 +42°C° 0 mm 1 mps 753 mmHg 10%
    23:00 +41°C° 0 mm 1 mps 753 mmHg 10%

    23 September, Sunday

    Time Temperature Precipitation Wind Pressure Humidity
    00:00 +40°C° 0 mm 1 mps 753 mmHg 11%
    01:00 +40°C° 0 mm 1 mps 753 mmHg 12%
    02:00 +39°C° 0 mm 2 mps 753 mmHg 12%
    03:00 +39°C° 0 mm 2 mps 753 mmHg 13%
    04:00 +38°C° 0 mm 2 mps 753 mmHg 17%
    05:00 +38°C° 0 mm 3 mps 753 mmHg 20%
    06:00 +37°C° 0 mm 3 mps 754 mmHg 23%
    07:00 +39°C° 0 mm 3 mps 754 mmHg 21%
    08:00 +42°C° 0 mm 4 mps 754 mmHg 19%
    09:00 +44°C° 0 mm 4 mps 754 mmHg 17%
    10:00 +47°C° 0 mm 4 mps 754 mmHg 15%
    11:00 +48°C° 0 mm 4 mps 754 mmHg 13%
    12:00 +49°C° 0 mm 4 mps 754 mmHg 10%
    13:00 +50°C° 0 mm 3 mps 753 mmHg 10%
    14:00 +50°C° 0 mm 3 mps 753 mmHg 9%
    15:00 +51°C° 0 mm 3 mps 752 mmHg 8%
    16:00 +48°C° 0 mm 3 mps 752 mmHg 9%
    17:00 +47°C° 0 mm 3 mps 753 mmHg 9%
    18:00 +46°C° 0 mm 3 mps 753 mmHg 10%
    19:00 +45°C° 0 mm 3 mps 753 mmHg 12%
    20:00 +43°C° 0 mm 4 mps 754 mmHg 14%
    21:00 +42°C° 0 mm 4 mps 754 mmHg 16%
    22:00 +40°C° 0 mm 3 mps 754 mmHg 17%
    23:00 +40°C° 0 mm 3 mps 754 mmHg 19%

    24 September, Monday

    Time Temperature Precipitation Wind Pressure Humidity
    00:00 +39°C° 0 mm 2 mps 754 mmHg 20%
    01:00 +38°C° 0 mm 2 mps 753 mmHg 22%
    02:00 +37°C° 0 mm 2 mps 753 mmHg 23%
    03:00 +36°C° 0 mm 1 mps 753 mmHg 25%
    04:00 +35°C° 0 mm 1 mps 753 mmHg 26%
    05:00 +35°C° 0 mm 1 mps 754 mmHg 26%
    06:00 +34°C° 0 mm 1 mps 754 mmHg 26%
    07:00 +37°C° 0 mm 2 mps 754 mmHg 23%
    08:00 +40°C° 0 mm 2 mps 754 mmHg 20%
    09:00 +42°C° 0 mm 2 mps 755 mmHg 17%
    10:00 +44°C° 0 mm 3 mps 754 mmHg 14%
    11:00 +47°C° 0 mm 4 mps 754 mmHg 11%
    12:00 +48°C° 0 mm 4 mps 754 mmHg 9%
    13:00 +49°C° 0 mm 5 mps 753 mmHg 8%
    14:00 +49°C° 0 mm 6 mps 753 mmHg 8%
    15:00 +50°C° 0 mm 7 mps 752 mmHg 7%
    16:00 +48°C° 0 mm 6 mps 752 mmHg 8%
    17:00 +47°C° 0 mm 6 mps 753 mmHg 9%
    18:00 +46°C° 0 mm 5 mps 753 mmHg 10%
    19:00 +45°C° 0 mm 5 mps 753 mmHg 10%
    20:00 +43°C° 0 mm 4 mps 753 mmHg 11%
    21:00 +42°C° 0 mm 4 mps 754 mmHg 11%
    22:00 +41°C° 0 mm 4 mps 753 mmHg 11%
    23:00 +40°C° 0 mm 4 mps 753 mmHg 11%
    Show more